Regional Weather Roundup
Issued by NWS

Home | Current Version | Previous Version | Graphics & Text | Print | Product List | Glossary On
Versions: 1 2 3 4 5 6 7 8 9 10 11 12 13 14 15 16 17 18 19 20 21 22 23 24 25 26 27 28 29 30 31 32 33 34 35 36 37 38 39 40 41 42 43 44 45 46 47 48 49 50
016
ASUS44 KMEG 230110
RWRTN
TENNESSEE HOURLY STATE WEATHER ROUNDUP
NATIONAL WEATHER SERVICE MEMPHIS TN
800 PM CDT SAT APR 22 2017

TNZ002-004-019-021-049-052-054-088>092-230200-
WEST TENNESSEE

CITY           SKY/WX    TMP DP  RH WIND       PRES   REMARKS
MEMPHIS INTL   LGT RAIN  53  52  96 NW12      29.93R FOG
NWS MEMPHIS      N/A     53 N/A N/A MISG        N/A
JACKSON        LGT RAIN  54  53  97 N9        29.91R FOG
DYERSBURG      LGT RAIN  52  52 100 N5        29.94R FOG
SOMERVILLE     CLOUDY    54  54 100 N7        29.90R FOG
UNION CITY     CLOUDY    55  50  82 NE12      29.92S
BOLIVAR        CLOUDY    55  54  94 VRB5      29.89R FOG
PARIS          CLOUDY    50  48  93 NE8       29.92R
HUNTINGDON     CLOUDY    54  52  94 NE10      29.90S FOG
LEXINGTON      CLOUDY    54  52  94 VRB6G13   29.89R
SAVANNAH       CLOUDY    57  55  94 N7        29.86R
$$

TNZ008-025-027-028-033-062-065-066-230200-
NORTH MIDDLE TENNESSEE

CITY           SKY/WX    TMP DP  RH WIND       PRES   REMARKS
NASHVILLE      CLOUDY    53  51  93 NE12      29.90R
PORTLAND       CLOUDY    52  48  87 NE7       29.91S
CLARKSVILLE    CLOUDY    54  48  80 NE12      29.92R
SMYRNA         CLOUDY    54  52  93 NE9       29.91R
COOKEVILLE     CLOUDY    55  55 100 NE5       29.86S
CROSSVILLE     CLOUDY    52  51  97 NE6       29.89R
$$

TNZ061-075-076-078-094-096-097-230200-
SOUTH MIDDLE TENNESSEE

CITY           SKY/WX    TMP DP  RH WIND       PRES   REMARKS
FAYETTEVILLE     N/A     59  59 100 CALM      29.84R
TULLAHOMA      CLOUDY    59  57  94 N5        29.85F
WINCHESTER     PTCLDY    61  59  94 SE5       29.84F
MCMINNVILLE    CLOUDY    57  57 100 CALM      29.88R
COLUMBIA       CLOUDY   N/A N/A N/A NE9       29.85S
SHELBYVILLE    CLOUDY    59  57  94 N7        29.86F
$$

TNZ017-018-042-046-047-230200-
NORTHEAST TENNESSEE

CITY           SKY/WX    TMP DP  RH WIND       PRES   REMARKS
TRI CITIES     RAIN      57  54  89 NW7       29.96R
ELIZABETHTON   RAIN      59  57  94 NW5       29.94R
$$

TNZ012-013-036-069-073-074-230200-
CENTRAL EAST TENNESSEE

CITY           SKY/WX    TMP DP  RH WIND       PRES   REMARKS
KNOXVILLE      TSTM      60  57  89 E16       29.89F
OAK RIDGE      CLOUDY    56  54  93 VRB3      29.90F
DOWNTOWN KNOXV MOCLDY    63  61  94 SE12      29.89F
GATLINBURG     MOCLDY    59  57  94 CALM      29.96R
MORRISTOWN     CLOUDY    61  61 100 SW6       29.95R FOG
JACKSBORO      CLOUDY    52  52 100 CALM      29.93R
$$

TNZ083-085-099-230200-
SOUTHEAST TENNESSEE

CITY           SKY/WX    TMP DP  RH WIND       PRES   REMARKS
CHATTANOOGA    MOCLDY    61  59  93 N8        29.88F THUNDER
$$

SKY/WX REPORTED AS FAIR MEANS FEW OR NO CLOUDS BELOW
12 THOUSAND FEET.





USA.gov is the U.S. government's official web portal to all federal, state and local government web resources and services.